Regional Weather Roundup
Issued by NWS

Home | Current Version | Previous Version | Graphics & Text | Print | Product List | Glossary Off
Versions: 1 2 3 4 5 6 7 8 9 10 11 12 13 14 15 16 17 18 19 20 21 22 23 24 25 26 27 28 29 30 31 32 33 34 35 36 37 38 39 40 41 42 43 44 45 46 47 48 49 50

000
ASUS43 KDMX 250604
RWRIA

WEATHER ROUNDUP FOR IOWA
NATIONAL WEATHER SERVICE DES MOINES IA
  ISSUED BY NWS QUAD CITIES IA IL
1200 AM CST SUN JAN 25 2015

NOTE: "FAIR" INDICATES FEW OR NO CLOUDS BELOW 12,000 FEET WITH NO
SIGNIFICANT WEATHER AND/OR OBSTRUCTIONS TO VISIBILITY.

* - THESE STATIONS ARE NOT NWS STATIONS...THUS NOT UNDER NWS
QUALITY CONTROL.  THEY ALSO DO NOT REPORT WEATHER SUCH
AS PRECIPITATION OR FOG.

IAZ001>003-012>014-020>022-031>034-043>046-250700-
   NORTHWEST IOWA

CITY           SKY/WX    TMP DP  RH WIND       PRES   REMARKS
CARROLL *      LGT RAIN  39  36  87 W7        29.54S WCI  34
CHEROKEE *     CLOUDY    36  35  99 N5        29.57R WCI  32
6HR MIN TEMP:  35; 6HR MAX TEMP:  39;

DENNISON *     MIX PCPN  43  41  93 NW13G24   29.54R WCI  36
SIOUX CITY     CLOUDY    41  37  86 NW14G29   29.59S WCI  33
6HR MIN TEMP:  41; 6HR MAX TEMP:  47; 6HR PCP:  0.03;

SPENCER        LGT SNOW  34  32  92 N9        29.59R FOG     WCI  27
6HR MIN TEMP:  34; 6HR MAX TEMP:  38; 6HR PCP:  0.05;

$$

IAZ055>058-069>071-079>083-090>094-250700-
   SOUTHWEST IOWA

CITY           SKY/WX    TMP DP  RH WIND       PRES   REMARKS
ATLANTIC *     CLOUDY    43  39  87 W12       29.55F WCI  37
AUDUBON *      CLOUDY    43  37  81 W5        29.55S
CLARINDA *     LGT RAIN  45  41  87 W9        29.61F WCI  40
COUNCIL BLFS * CLOUDY    45  41  87 NW16G25   29.59R WCI  37
CRESTON *      CLOUDY    41  39  93 SW7       29.57F WCI  36
HARLAN *       CLOUDY    45  45 100 NW18      29.59S WCI  37
LAMONI         LGT RAIN  42  39  89 SW12      29.58F WCI  36
6HR MIN TEMP:  42; 6HR MAX TEMP:  49; 6HR PCP:  0.01;

$$

IAZ047>049-059>061-072>074-084-250700-
   CENTRAL IOWA

CITY           SKY/WX    TMP DP  RH WIND       PRES   REMARKS
AMES           CLOUDY    37  33  85 CALM      29.56S
6HR MIN TEMP:  37; 6HR MAX TEMP:  41;

BOONE *        CLOUDY    39  36  87 NE3       29.54S
CHARITON *     CLOUDY    41  37  87 SW5       29.57F WCI  38
DES MOINES     LGT RAIN  41  36  82 S7        29.56F WCI  36
6HR MIN TEMP:  41; 6HR MAX TEMP:  48; 6HR PCP:  0.01;

GRINNELL *     CLOUDY    39  32  75 SW5       29.57S WCI  36
6HR MIN TEMP:  38; 6HR MAX TEMP:  43;

MARSHALLTOWN   LGT RAIN  36  32  85 SW7       29.56R WCI  30
6HR MIN TEMP:  35; 6HR MAX TEMP:  41; 6HR PCP: TRACE;

PERRY *          N/A     39  37  93 CALM      29.55S
6HR MIN TEMP:  39; 6HR MAX TEMP:  42;

$$

IAZ004>006-015-016-023>025-035-036-250700-
   NORTH CENTRAL IOWA

CITY           SKY/WX    TMP DP  RH WIND       PRES   REMARKS
ALGONA *       LGT RAIN  34  34 100 N7        29.58R WCI  28
CLARION *      CLOUDY    36  36 100 N5        29.57R WCI  32
ESTHERVILLE    LGT SNOW  32  32 100 N8        29.59R FOG     WCI  25
6HR MIN TEMP:  32; 6HR MAX TEMP:  36; 6HR PCP:  0.03;

FORT DODGE *   CLOUDY    37  32  81 N5        29.57S WCI  34
6HR MIN TEMP:  37; 6HR MAX TEMP:  41;

MASON CITY     CLOUDY    33  32  96 N6        29.58S WCI  28
6HR MIN TEMP:  32; 6HR MAX TEMP:  37;

WEBSTER CITY * LGT RAIN  37  37 100 NW6       29.55S WCI  33
IOWA FALLS *   CLOUDY    35  32  87 CALM      29.57S
6HR MIN TEMP:  35; 6HR MAX TEMP:  39;

$$

IAZ007>011-017>019-026>030-037>042-050>054-066-250700-
   NORTHEAST IOWA

CITY           SKY/WX    TMP DP  RH WIND       PRES   REMARKS
CEDAR RAPIDS   CLOUDY    34  31  88 SE3       29.56F
6HR MIN TEMP:  33; 6HR MAX TEMP:  40;

CHARLES CITY * CLOUDY    34  34 100 NE5       29.58S WCI  30
CLINTON *      CLOUDY    34  30  86 E5        29.63S WCI  30
6HR MIN TEMP:  34; 6HR MAX TEMP:  37;

DECORAH *      CLOUDY    34  34 100 E7        29.58S WCI  28
DUBUQUE        CLOUDY    34  31  88 CALM      29.59F
6HR MIN TEMP:  34; 6HR MAX TEMP:  39;

WATERLOO       CLOUDY    33  32  96 NE3       29.57S
6HR MIN TEMP:  32; 6HR MAX TEMP:  38;

$$

IAZ064-065-067-068-078-250700-
   EAST CENTRAL IOWA

CITY           SKY/WX    TMP DP  RH WIND       PRES   REMARKS
DAVENPORT      CLOUDY    34  31  88 E6        29.60F WCI  29
6HR MIN TEMP:  32; 6HR MAX TEMP:  41;

IOWA CITY      CLOUDY    33  31  92 CALM      29.59F
6HR MIN TEMP:  32; 6HR MAX TEMP:  41;

QUAD CITIES    CLOUDY    33  30  88 E5        29.59F WCI  29
6HR MIN TEMP:  32; 6HR MAX TEMP:  41;

$$

IAZ062-063-075>077-085>089-095>099-250700-
   SOUTHEAST IOWA

CITY           SKY/WX    TMP DP  RH WIND       PRES   REMARKS
BURLINGTON     CLOUDY    41  33  73 S7        29.59F WCI  36
6HR MIN TEMP:  39; 6HR MAX TEMP:  44;

FAIRFIELD *    CLOUDY    43  32  65 SW9       29.59S WCI  37
FORT MADISON * CLOUDY    45  36  70 S7        29.60F
KEOKUK *       CLOUDY    43  34  70 SW7       29.59F WCI  39
OTTUMWA        LGT RAIN  41  35  79 SW7       29.58S WCI  36
6HR MIN TEMP:  39; 6HR MAX TEMP:  43; 6HR PCP:  0.01;

WASHINGTON *   CLOUDY    39  34  81 S6        29.58F WCI  35
$$

ABBREVIATIONS USED IN REMARKS
   TC - TEMPERATURES IN CELSIUS
  WCI - WIND CHILL INDEX
   HX - HEAT INDEX
  VSB - VISIBILITY
$$


USA.gov is the U.S. government's official web portal to all federal, state and local government web resources and services.